Location: Casper
(42.8670°N, 106.3130°W)
Time: 11:06:22
(UTC-07:00)

Daily predictions for brighter satellites

Satellite Brightness Start Highest point End
(mag) Time Altitude Azimuth Time Altitude Azimuth Time Altitude Azimuth
Cosmos 2285 Rocket 4.4 18:11:13 10° N 18:17:20 43° ENE 18:23:23 10° SE
Cosmos 405 Rocket 4.2 18:18:41 10° NNE 18:21:40 19° ENE 18:24:35 10° ESE
Cosmos 614 Rocket 3.9 18:18:07 10° SSW 18:23:11 84° ESE 18:28:17 10° NNE
Cosmos 2237 Rocket 3.2 18:18:32 10° N 18:23:18 26° NE 18:28:02 10° ESE
Cosmos 2297 Rocket 3.7 18:23:16 10° SE 18:26:17 15° E 18:29:19 10° ENE
COSMO-SKYMED 1 2.8 18:22:10 10° N 18:26:31 77° WNW 18:30:51 10° SSW
Cosmos 1140 Rocket 3.9 18:21:58 10° SSW 18:27:05 69° WNW 18:32:16 10° NNE
Cosmos 1741 Rocket 4.0 18:23:02 10° SSW 18:28:14 75° ESE 18:33:28 10° NNE
H-2A R/B 4.1 18:26:15 10° ESE 18:28:55 19° ENE 18:31:37 10° NNE
Cosmos 2333 4.2 18:23:38 10° NNW 18:29:23 68° ENE 18:35:06 10° SSE
ALOS 2.9 18:25:27 10° SE 18:29:41 35° ENE 18:33:56 10° N
Cosmos 2219 Rocket 2.5 18:27:19 10° NNW 18:32:43 47° ENE 18:38:07 10° SE
Cosmos 2237 4.4 18:27:14 10° NNW 18:32:59 80° WSW 18:38:42 10° SSE
COSMOS 2428 2.7 18:27:43 10° NNW 18:33:27 83° ENE 18:39:09 10° SSE
Cosmos 2360 Rocket 3.5 18:28:49 10° NW 18:34:12 46° WSW 18:39:34 10° S
Meteor 1-19 Rocket 4.5 18:29:43 10° NNW 18:35:28 81° W 18:41:16 10° S
SJ-6B 2.9 18:31:51 10° SSE 18:35:41 52° ENE 18:39:28 10° N
Meteor 2-4 Rocket 3.6 18:35:40 10° N 18:41:11 81° E 18:46:33 10° SSE
Cosmos 2227 Rocket 3.0 18:41:58 10° SSE 18:46:48 30° ESE 18:51:38 10° NE
USA 229 DEB 3.8 18:40:28 10° NW 18:47:38 88° NE 18:54:55 10° SE
Cosmos 2219 3.3 18:41:55 10° SSW 18:47:41 86° WNW 18:53:28 10° NNE
USA 229 3.8 18:40:34 10° NW 18:47:45 87° ENE 18:55:01 10° SE
Resurs 01 Rocket 2.1 18:43:53 10° SE 18:47:58 38° ENE 18:52:03 10° N
Cosmos 468 Rocket 4.2 18:43:22 10° N 18:48:28 49° ENE 18:53:34 10° SE
Cosmos 1025 Rocket 3.0 18:47:03 10° N 18:51:27 74° E 18:55:51 10° SSE
Meteor 1-23 Rocket 4.2 18:46:42 10° N 18:52:31 82° E 18:58:14 10° SSE
Resurs 1-3 4.1 18:49:22 10° SE 18:53:24 37° ENE 18:57:26 10° N
FREGAT/IRIS 2.7 18:50:48 10° S 18:53:52 82° WSW 18:56:59 10° NNW
Okean 1 Rocket 3.7 18:50:35 10° SSW 18:55:00 61° W 18:59:28 10° N
NOAA 12 4.5 18:49:51 10° S 18:55:09 71° WSW 19:00:30 10° NNW
Spot 2 Rocket 3.7 18:52:07 10° SE 18:56:58 49° ENE 19:01:52 10° N
Gbstr 26 Del rocket 3.9 18:53:38 10° W 18:57:10 35° NNW 19:00:29 11° NE
SL-08 ROCKET BODY 4.4 18:51:03 10° S 18:57:15 83° E 19:03:28 10° N
Cosmos 1892 Rocket 3.8 18:53:23 10° N 18:57:35 44° ENE 19:01:46 10° SSE
BREEZE-M DEB (TANK) 2.4 18:54:06 10° SW 18:58:04 55° SSE 18:59:20 24° E
USA 215 4.4 18:53:12 10° NE 18:59:08 39° NNW 19:05:05 10° W
NOSS 3-1 (A) 4.4 18:52:57 10° NNW 19:00:06 46° NE 19:06:34 16° ESE
SL-16 R/B 3.4 18:56:10 10° N 19:00:40 23° NE 19:03:01 18° E
GPS 2-04 Rocket1 4.1 18:57:33 10° WSW 19:01:17 30° S 19:04:06 15° SE
Cosmos 2327 Rocket 4.5 18:55:30 10° S 19:01:43 75° E 19:08:05 10° N
OTV 4 1.9 18:59:23 10° SW 19:01:55 25° S 19:03:01 20° SE
BREEZE-M DEB (TANK) 4.1 18:58:40 10° WNW 19:01:59 68° NNE 19:12:45 17° E
Abrixas rocket 3.0 18:59:55 10° W 19:03:11 48° NNW 19:05:21 19° NE
ATLAS 2AS CENTAUR R/B 4.3 18:58:24 10° NNW 19:04:42 24° NNE 19:09:17 15° ENE
GEOS 3 Rocket 4.5 19:01:29 14° ENE 19:05:07 29° ESE 19:09:38 10° S
Cosmos 1536 3.9 19:04:19 10° SSW 19:08:10 47° W 19:12:02 10° N
Okean 2 3.3 19:04:13 10° N 19:08:25 78° E 19:12:35 10° SSE
Atlas Centaur 2 4.2 19:04:29 10° SSW 19:09:37 19° SSE 19:13:01 14° SE
Cosmos 1814 Rocket 4.0 19:06:51 10° NNW 19:11:57 58° ENE 19:16:59 10° SSE
HJ-1C 3.4 19:10:14 10° S 19:13:35 80° WSW 19:16:59 10° NNW
Envisat 4.0 19:12:39 23° E 19:13:46 25° ENE 19:17:51 10° NNE
USA 186 3.7 19:16:29 14° NNE 19:16:29 14° NNE 19:17:05 10° NNE
Meteor 2-13 Rocket 4.4 19:08:45 10° S 19:14:44 67° E 19:20:48 10° NNE
FENGYUN 3A 3.7 19:09:50 10° SSE 19:15:16 88° WSW 19:20:44 10° NNW
NOSS 3-1 (C) 4.0 19:09:29 10° NNW 19:16:58 68° NE 19:24:01 15° SE
Cosmos 1544 Rocket 3.4 19:16:18 10° S 19:20:34 64° E 19:24:51 10° NNE
Cosmos 2074 Rocket 4.3 19:15:35 10° SSW 19:21:49 73° W 19:28:09 10° N
Helios 1B rocket 2.9 19:18:53 10° NNE 19:22:46 37° E 19:26:38 10° SSE
Cosmos 1980 3.6 19:17:49 10° NNW 19:23:30 77° ENE 19:28:44 12° SSE
Aureole 2 Rocket 4.0 19:20:50 10° N 19:22:21 19° NNE 19:22:21 19° NNE
BREEZE-M DEB (TANK) 3.2 19:23:34 10° WNW 19:26:16 51° SSW 19:31:05 16° SE
NOSS 0 Rocket 4.0 19:20:34 10° NNW 19:26:45 83° WSW 19:32:52 10° SSE
Cosmos 2333 Rocket 2.3 19:21:20 10° NNW 19:27:08 82° WSW 19:32:53 10° SSE
Cosmos 1437 2.6 19:25:17 10° N 19:28:35 82° ENE 19:30:02 31° SSE
USA 32 4.3 19:24:02 10° N 19:29:02 44° E 19:31:43 25° SE
Cosmos 2184 Rocket 4.4 19:24:25 10° SSW 19:30:40 65° W 19:36:53 10° N
Helios 1A 2.9 19:29:35 29° SE 19:31:28 58° ENE 19:35:34 10° N
Cosmos 1975 2.8 19:27:55 10° S 19:31:52 56° E 19:35:52 10° NNE
Cosmos 1500 3.2 19:29:32 10° S 19:33:14 53° E 19:36:55 10° NNE
Cosmos 1602 Rocket 4.1 19:31:12 10° N 19:35:05 38° ENE 19:35:05 38° ENE
Cosmos 1515 3.6 19:34:55 10° N 19:38:48 86° E 19:40:45 28° S
Cosmos 1626 Rocket 3.9 19:35:09 10° N 19:39:17 44° ENE 19:39:17 44° ENE
Elektron 1 4.4 19:39:10 10° SSW 19:45:10 71° SE 19:45:43 60° ENE
Cosmos 1486 Rocket 3.9 19:39:57 10° SSW 19:45:16 79° ESE 19:50:36 10° NNE
Nadezhda 3 Rocket 3.9 19:40:10 10° N 19:46:22 90° NW 19:52:35 10° S
Cosmos 841 Rocket 3.3 19:44:07 10° NNW 19:49:16 72° ENE 19:50:48 45° SE
Cosmos 2082 3.6 19:44:50 10° SSW 19:50:34 86° ESE 19:56:19 10° NNE
Spot 1 4.0 19:49:36 33° S 19:51:23 80° WSW 19:55:38 10° NNW
Cosmos 540 Rocket 4.3 19:51:15 10° N 19:55:05 34° NE 19:55:05 34° NE
Cosmos 1455 Rocket 3.5 19:53:27 10° SSW 19:57:47 61° W 20:02:06 10° N
Cosmos 1763 Rocket 3.5 19:52:48 10° NNW 19:57:58 79° WSW 20:00:20 33° S
Cosmos 2154 Rocket 4.2 19:54:08 10° SSW 20:00:27 72° W 20:06:48 10° N
Cosmos 2341 Rocket 4.0 19:56:09 10° S 20:02:31 89° E 20:08:57 10° N
Cosmos 332 Rocket 3.9 20:00:49 10° NNW 20:05:43 76° WSW 20:06:49 52° S
H-2A R/B 4.5 20:09:24 10° NNE 20:09:24 10° NNE 20:09:24 10° NNE
OAO 3 Rocket 4.5 20:02:33 10° SW 20:06:09 29° S 20:06:09 29° S
Cosmos 2237 Rocket 2.9 20:02:08 10° NW 20:07:39 52° WSW 20:11:40 18° S
Cosmos 2297 Rocket 2.2 20:03:56 10° SSW 20:09:35 78° WNW 20:15:16 10° NNE
Meteor 2-8 Rocket 4.3 20:05:34 10° N 20:11:39 86° W 20:14:53 30° S
Meteor 2-19 Rocket 4.3 20:07:25 10° S 20:13:33 79° E 20:19:44 10° N
Cosmos 371 Rocket 3.2 20:09:32 10° NNW 20:14:26 82° WSW 20:14:30 82° WSW
Cosmos 1066 Rocket 4.4 20:09:47 10° NNW 20:15:21 69° W 20:18:03 30° S
Cosmos 2219 Rocket 4.2 20:11:50 10° NW 20:16:21 26° WSW 20:20:53 10° SSW
Resurs 01 Rocket 4.1 20:21:19 10° SW 20:24:34 20° W 20:27:51 10° NW
Cosmos 2227 Rocket 3.3 20:25:19 10° SW 20:30:39 42° WNW 20:36:02 10° NNE
ERS-1 Rocket 4.1 20:45:00 37° NNW 20:45:00 37° NNW 20:47:59 10° NNW
GEOS 3 Rocket 4.2 20:42:38 50° NNW 20:43:18 53° NW 20:48:26 10° WSW
SL-16 R/B 2.6 20:39:36 10° NNW 20:44:57 59° W 20:44:57 59° W
Cosmos 2218 Rocket 4.3 20:49:19 58° N 20:49:19 58° N 20:54:19 10° N
Envisat 4.1 20:52:51 42° W 20:52:51 42° W 20:57:22 10° NNW
ATLAS 2AS CENTAUR R/B 3.1 20:49:21 10° NNW 20:56:44 62° NNE 20:56:44 62° NNE
Atlas Centaur 2 4.3 20:52:34 10° SW 20:55:41 20° SSW 20:55:41 20° SSW
